User: anonymous
Location: Goheenville
(40.9070°N, 79.3720°W)
Time: 19:57:11
(UTC-04:00)
Language:

Meteor 2-10 Rocket - Orbit

View from above orbital plane
View from above orbital plane
View from above satellite
View from above satellite

Ground track
Ground track

The orbit data is extracted from the following two-line orbital elements,

1 14453U 83109B   14107.79382737  .00000177  00000-0  66803-4 0  1205
2 14453 081.1681 189.4951 0105793 168.1963 332.0473 14.24482307582888
Epoch (UTC): 17 April 2014 19:03:06
Eccentricity: 0.0105793
inclination: 81.1681°
perigee height: 734 km
apogee height: 886 km
right ascension of ascending node: 189.4951°
argument of perigee: 168.1963°
revolutions per day: 14.24482307
mean anomaly at epoch: 332.0473°
orbit number at epoch: 58288

The dashed part of the orbit path shows where the satellite is in the earth's shadow,  

DLR